| time (UTC) | temp C | wind direction | speed KPH | gust KPH | rain 1hr cm | rain 24hr cm | rain mn cm | humidity % | barometer mb |
| 20260504195051 | 21 | 143 | 9.7 | 16.1 | 0.00 | 0.00 | 0.00 | 35 | 1010.7 |
| 20260504194550 | 21 | 132 | 6.4 | 19.3 | 0.00 | 0.00 | 0.00 | 34 | 1010.6 |
| 20260504194050 | 21 | 273 | 1.6 | 19.3 | 0.00 | 0.00 | 0.00 | 33 | 1010.7 |
| 20260504193610 | 21 | 79 | 1.6 | 11.3 | 0.00 | 0.00 | 0.00 | 33 | 1010.8 |
| 20260504193050 | 21 | 104 | 3.2 | 14.5 | 0.00 | 0.00 | 0.00 | 34 | 1010.8 |
| 20260504192550 | 21 | 122 | 8.0 | 14.5 | 0.00 | 0.00 | 0.00 | 36 | 1010.8 |
| 20260504192110 | 20 | 129 | 1.6 | 11.3 | 0.00 | 0.00 | 0.00 | 34 | 1010.8 |
| 20260504191550 | 20 | 137 | 8.0 | 11.3 | 0.00 | 0.00 | 0.00 | 35 | 1010.7 |
| 20260504191111 | 20 | 60 | 0.0 | 11.3 | 0.00 | 0.00 | 0.00 | 35 | 1010.8 |
| 20260504190549 | 20 | 108 | 4.8 | 16.1 | 0.00 | 0.00 | 0.00 | 32 | 1010.9 |
| 20260504190050 | 21 | 147 | 6.4 | 16.1 | 0.00 | 0.00 | 0.00 | 31 | 1011.0 |
| 20260504185550 | 21 | 205 | 3.2 | 12.9 | 0.00 | 0.00 | 0.00 | 34 | 1010.9 |
| 20260504185050 | 21 | 237 | 6.4 | 12.9 | 0.00 | 0.00 | 0.00 | 32 | 1011.0 |
| 20260504184550 | 21 | 151 | 3.2 | 12.9 | 0.00 | 0.00 | 0.00 | 33 | 1010.9 |
| 20260504184049 | 21 | 45 | 4.8 | 12.9 | 0.00 | 0.00 | 0.00 | 34 | 1010.9 |
| 20260504183550 | 20 | 132 | 3.2 | 16.1 | 0.00 | 0.00 | 0.00 | 34 | 1011.0 |
| 20260504183111 | 20 | 130 | 3.2 | 16.1 | 0.00 | 0.00 | 0.00 | 32 | 1011.0 |
| 20260504182550 | 20 | 34 | 3.2 | 17.7 | 0.00 | 0.00 | 0.00 | 35 | 1011.1 |
| 20260504182050 | 20 | 184 | 3.2 | 17.7 | 0.00 | 0.00 | 0.00 | 35 | 1011.2 |
| 20260504181550 | 20 | 75 | 9.7 | 14.5 | 0.00 | 0.00 | 0.00 | 33 | 1011.2 |
| 20260504181049 | 20 | 160 | 6.4 | 14.5 | 0.00 | 0.00 | 0.00 | 35 | 1011.3 |
| 20260504180549 | 20 | 179 | 3.2 | 16.1 | 0.00 | 0.00 | 0.00 | 32 | 1011.4 |
| 20260504180050 | 20 | 113 | 6.4 | 16.1 | 0.00 | 0.00 | 0.00 | 32 | 1011.4 |
| 20260504175550 | 20 | 117 | 1.6 | 14.5 | 0.00 | 0.00 | 0.00 | 34 | 1011.5 |
| 20260504175050 | 20 | 139 | 3.2 | 16.1 | 0.00 | 0.00 | 0.00 | 31 | 1011.6 |
| 20260504174611 | 20 | 105 | 6.4 | 16.1 | 0.00 | 0.00 | 0.00 | 34 | 1011.7 |
| 20260504174110 | 20 | 75 | 8.0 | 12.9 | 0.00 | 0.00 | 0.00 | 33 | 1011.7 |
| 20260504173549 | 20 | 154 | 3.2 | 12.9 | 0.00 | 0.00 | 0.00 | 34 | 1011.8 |
| 20260504173051 | 20 | 112 | 6.4 | 14.5 | 0.00 | 0.00 | 0.00 | 33 | 1011.9 |
| 20260504172549 | 20 | 47 | 6.4 | 14.5 | 0.00 | 0.00 | 0.00 | 32 | 1011.9 |
| 20260504172050 | 19 | 122 | 0.0 | 14.5 | 0.00 | 0.00 | 0.00 | 34 | 1011.9 |
| 20260504171550 | 19 | 108 | 6.4 | 14.5 | 0.00 | 0.00 | 0.00 | 32 | 1011.8 |
| 20260504171050 | 19 | 109 | 4.8 | 20.9 | 0.00 | 0.00 | 0.00 | 31 | 1012.0 |
| 20260504170550 | 19 | 44 | 9.7 | 20.9 | 0.00 | 0.00 | 0.00 | 32 | 1011.9 |
| 20260504151049 | 17 | 144 | 3.2 | 20.9 | 0.00 | 0.00 | 0.00 | 37 | 1013.2 |
| 20260504150550 | 16 | 84 | 12.9 | 20.9 | 0.00 | 0.00 | 0.00 | 35 | 1013.2 |
| 20260504141050 | 15 | 295 | 6.4 | 12.9 | 0.00 | 0.00 | 0.00 | 42 | 1013.8 |
| 20260504140550 | 15 | 70 | 4.8 | 12.9 | 0.00 | 0.00 | 0.00 | 41 | 1013.7 |
| 20260504130550 | 13 | 106 | 3.2 | 11.3 | 0.00 | 0.00 | 0.00 | 47 | 1014.2 |
| 20260504110549 | 7 | 157 | 1.6 | 3.2 | 0.00 | 0.00 | 0.00 | 61 | 1014.2 |
| 20260504100550 | 6 | 307 | 0.0 | 3.2 | 0.00 | 0.00 | 0.00 | 64 | 1013.7 |
| 20260504081550 | 7 | 0 | 0.0 | 6.4 | 0.00 | 0.00 | 0.00 | 58 | 1013.1 |
| 20260504081050 | 7 | 54 | 4.8 | 6.4 | 0.00 | 0.00 | 0.00 | 56 | 1013.2 |
| 20260504080550 | 7 | 149 | 1.6 | 3.2 | 0.00 | 0.00 | 0.00 | 56 | 1013.2 |
| 20260504060111 | 7 | 245 | 0.0 | 3.2 | 0.00 | 0.00 | 0.00 | 54 | 1013.6 |
| 20260504050550 | 6 | 262 | 1.6 | 4.8 | 0.00 | 0.00 | 0.00 | 56 | 1013.4 |
| 20260504045611 | 6 | 276 | 0.0 | 4.8 | 0.00 | 0.00 | 0.00 | 54 | 1013.5 |
| 20260504045050 | 6 | 263 | 3.2 | 4.8 | 0.00 | 0.00 | 0.00 | 55 | 1013.5 |
| 20260504044550 | 6 | 311 | 1.6 | 4.8 | 0.00 | 0.00 | 0.00 | 54 | 1013.5 |
| 20260504044050 | 6 | 249 | 1.6 | 3.2 | 0.00 | 0.00 | 0.00 | 54 | 1013.5 |
| 20260504043550 | 6 | 275 | 3.2 | 3.2 | 0.00 | 0.00 | 0.00 | 54 | 1013.6 |
| 20260504043050 | 6 | 278 | 3.2 | 3.2 | 0.00 | 0.00 | 0.00 | 54 | 1013.6 |
| 20260504042550 | 6 | 251 | 1.6 | 4.8 | 0.00 | 0.00 | 0.00 | 54 | 1013.6 |
| 20260504042050 | 6 | 250 | 3.2 | 4.8 | 0.00 | 0.00 | 0.00 | 55 | 1013.6 |
| 20260504041551 | 6 | 240 | 1.6 | 4.8 | 0.00 | 0.00 | 0.00 | 55 | 1013.6 |
| 20260504041050 | 6 | 276 | 1.6 | 4.8 | 0.00 | 0.00 | 0.00 | 56 | 1013.5 |
| 20260504040550 | 6 | 335 | 0.0 | 4.8 | 0.00 | 0.00 | 0.00 | 55 | 1013.4 |
| 20260504040049 | 6 | 307 | 1.6 | 4.8 | 0.00 | 0.00 | 0.00 | 54 | 1013.4 |
| 20260504035550 | 6 | 345 | 0.0 | 4.8 | 0.00 | 0.00 | 0.00 | 53 | 1013.3 |
| 20260504035050 | 6 | 321 | 0.0 | 3.2 | 0.00 | 0.00 | 0.00 | 55 | 1013.3 |
| 20260504034550 | 6 | 278 | 0.0 | 3.2 | 0.00 | 0.00 | 0.00 | 54 | 1013.3 |
| 20260504034050 | 6 | 270 | 0.0 | 3.2 | 0.00 | 0.00 | 0.00 | 54 | 1013.3 |
| 20260504033611 | 6 | 262 | 1.6 | 3.2 | 0.00 | 0.00 | 0.00 | 54 | 1013.2 |
| 20260504033111 | 6 | 254 | 1.6 | 3.2 | 0.00 | 0.00 | 0.00 | 52 | 1013.1 |
| 20260504032550 | 6 | 271 | 1.6 | 3.2 | 0.00 | 0.00 | 0.00 | 55 | 1013.2 |
| 20260504032111 | 6 | 260 | 1.6 | 3.2 | 0.00 | 0.00 | 0.00 | 54 | 1013.2 |
| 20260504031550 | 6 | 0 | 0.0 | 3.2 | 0.00 | 0.00 | 0.00 | 56 | 1013.3 |
| 20260504031050 | 6 | 260 | 1.6 | 3.2 | 0.00 | 0.00 | 0.00 | 54 | 1013.4 |
| 20260504030549 | 6 | 267 | 1.6 | 3.2 | 0.00 | 0.00 | 0.00 | 55 | 1013.4 |
| 20260504030111 | 6 | 307 | 1.6 | 3.2 | 0.00 | 0.00 | 0.00 | 56 | 1013.4 |
| 20260504025550 | 6 | 307 | 1.6 | 3.2 | 0.00 | 0.00 | 0.00 | 55 | 1013.2 |
| 20260504025050 | 6 | 307 | 3.2 | 3.2 | 0.00 | 0.00 | 0.00 | 55 | 1013.2 |
| 20260504024610 | 7 | 314 | 1.6 | 3.2 | 0.00 | 0.00 | 0.00 | 55 | 1013.2 |
| 20260504024049 | 7 | 314 | 0.0 | 3.2 | 0.00 | 0.00 | 0.00 | 54 | 1013.1 |
| 20260504023550 | 7 | 314 | 1.6 | 3.2 | 0.00 | 0.00 | 0.00 | 55 | 1013.2 |
| 20260504023111 | 7 | 314 | 1.6 | 3.2 | 0.00 | 0.00 | 0.00 | 54 | 1013.1 |
| 20260504022550 | 7 | 314 | 1.6 | 3.2 | 0.00 | 0.00 | 0.00 | 54 | 1013.1 |
| 20260504022050 | 7 | 44 | 3.2 | 3.2 | 0.00 | 0.00 | 0.00 | 54 | 1013.1 |
| 20260504021550 | 7 | 44 | 1.6 | 3.2 | 0.00 | 0.00 | 0.00 | 53 | 1013.1 |
| 20260504021050 | 7 | 44 | 0.0 | 3.2 | 0.00 | 0.00 | 0.00 | 53 | 1013.0 |
| 20260504020549 | 7 | 44 | 1.6 | 3.2 | 0.00 | 0.00 | 0.00 | 53 | 1013.1 |
| 20260504020050 | 7 | 44 | 3.2 | 3.2 | 0.00 | 0.00 | 0.00 | 53 | 1013.0 |
| 20260504015611 | 7 | 45 | 1.6 | 3.2 | 0.00 | 0.00 | 0.00 | 53 | 1012.9 |
| 20260504015050 | 7 | 45 | 1.6 | 4.8 | 0.00 | 0.00 | 0.00 | 51 | 1013.0 |
| 20260504014550 | 7 | 45 | 3.2 | 4.8 | 0.00 | 0.00 | 0.00 | 53 | 1012.9 |
| 20260504014050 | 7 | 73 | 1.6 | 3.2 | 0.00 | 0.00 | 0.00 | 54 | 1012.9 |
| 20260504013550 | 7 | 145 | 1.6 | 3.2 | 0.00 | 0.00 | 0.00 | 53 | 1012.9 |
| 20260504013051 | 7 | 145 | 1.6 | 3.2 | 0.00 | 0.00 | 0.00 | 54 | 1012.7 |
| 20260504012550 | 7 | 145 | 1.6 | 1.6 | 0.00 | 0.00 | 0.00 | 54 | 1012.7 |
| 20260504012050 | 7 | 0 | 0.0 | 1.6 | 0.00 | 0.00 | 0.00 | 54 | 1012.6 |
| 20260504011611 | 7 | 145 | 1.6 | 1.6 | 0.00 | 0.00 | 0.00 | 53 | 1012.6 |
| 20260504011050 | 7 | 145 | 0.0 | 1.6 | 0.00 | 0.00 | 0.00 | 55 | 1012.6 |
| 20260504010549 | 7 | 145 | 0.0 | 1.6 | 0.00 | 0.00 | 0.00 | 53 | 1012.4 |
| 20260504010050 | 7 | 145 | 1.6 | 1.6 | 0.00 | 0.00 | 0.00 | 54 | 1012.4 |
| 20260504005611 | 7 | 136 | 0.0 | 1.6 | 0.00 | 0.00 | 0.00 | 53 | 1012.3 |
| 20260504005049 | 7 | 136 | 0.0 | 1.6 | 0.00 | 0.00 | 0.00 | 53 | 1012.3 |
| 20260504004550 | 7 | 136 | 1.6 | 1.6 | 0.00 | 0.00 | 0.00 | 52 | 1012.1 |
| 20260504004050 | 7 | 136 | 1.6 | 1.6 | 0.00 | 0.00 | 0.00 | 52 | 1012.1 |
| 20260504003550 | 7 | 0 | 0.0 | 1.6 | 0.00 | 0.00 | 0.00 | 52 | 1012.0 |
| 20260504003050 | 7 | 136 | 1.6 | 1.6 | 0.00 | 0.00 | 0.00 | 51 | 1011.9 |
| 20260504002550 | 7 | 0 | 0.0 | 1.6 | 0.00 | 0.00 | 0.00 | 50 | 1011.8 |
| 20260504002050 | 8 | 136 | 0.0 | 1.6 | 0.00 | 0.00 | 0.00 | 51 | 1011.7 |
| 20260504001549 | 8 | 0 | 0.0 | 1.6 | 0.00 | 0.00 | 0.00 | 50 | 1011.7 |
| 20260504001049 | 8 | 0 | 0.0 | 1.6 | 0.00 | 0.00 | 0.00 | 49 | 1011.6 |
| 20260504000550 | 8 | 0 | 0.0 | 1.6 | 0.00 | 0.00 | 0.00 | 47 | 1011.5 |
| 20260504000050 | 9 | 0 | 0.0 | 1.6 | 0.00 | 0.00 | 0.00 | 46 | 1011.4 |
| 20260503235549 | 10 | 0 | 0.0 | 1.6 | 0.00 | 0.00 | 0.00 | 42 | 1011.4 |
| 20260503235050 | 10 | 0 | 0.0 | 1.6 | 0.00 | 0.00 | 0.00 | 41 | 1011.4 |
| 20260503234550 | 10 | 136 | 1.6 | 1.6 | 0.00 | 0.00 | 0.00 | 39 | 1011.4 |
| 20260503234050 | 10 | 0 | 0.0 | 6.4 | 0.00 | 0.00 | 0.00 | 39 | 1011.3 |
| 20260503233550 | 10 | 136 | 0.0 | 6.4 | 0.00 | 0.00 | 0.00 | 39 | 1011.3 |
| 20260503233050 | 10 | 144 | 3.2 | 3.2 | 0.00 | 0.00 | 0.00 | 38 | 1011.3 |
| 20260503232550 | 10 | 161 | 0.0 | 6.4 | 0.00 | 0.00 | 0.00 | 40 | 1011.2 |
| 20260503232049 | 11 | 97 | 0.0 | 6.4 | 0.00 | 0.00 | 0.00 | 39 | 1011.2 |
| 20260503231550 | 11 | 131 | 1.6 | 6.4 | 0.00 | 0.00 | 0.00 | 38 | 1011.2 |
| 20260503231113 | 11 | 150 | 4.8 | 6.4 | 0.00 | 0.00 | 0.00 | 38 | 1011.2 |
| 20260503230611 | 11 | 150 | 1.6 | 8.0 | 0.00 | 0.00 | 0.00 | 39 | 1011.2 |
| 20260503230050 | 11 | 167 | 3.2 | 8.0 | 0.00 | 0.00 | 0.00 | 36 | 1011.0 |
| 20260503225550 | 11 | 169 | 1.6 | 8.0 | 0.00 | 0.00 | 0.00 | 38 | 1011.1 |
| 20260503225052 | 11 | 72 | 4.8 | 9.7 | 0.00 | 0.00 | 0.00 | 40 | 1011.1 |
| 20260503224550 | 11 | 146 | 1.6 | 9.7 | 0.00 | 0.00 | 0.00 | 39 | 1011.1 |
| 20260503224050 | 11 | 129 | 3.2 | 6.4 | 0.00 | 0.00 | 0.00 | 38 | 1011.1 |
| 20260503223549 | 11 | 139 | 1.6 | 17.7 | 0.00 | 0.00 | 0.00 | 38 | 1011.0 |
| 20260503223050 | 11 | 165 | 3.2 | 17.7 | 0.00 | 0.00 | 0.00 | 39 | 1010.9 |
| 20260503222550 | 11 | 150 | 12.9 | 16.1 | 0.00 | 0.00 | 0.00 | 38 | 1010.9 |
| 20260503222050 | 11 | 153 | 3.2 | 12.9 | 0.00 | 0.00 | 0.00 | 40 | 1010.9 |
| 20260503221550 | 11 | 170 | 6.4 | 12.9 | 0.00 | 0.00 | 0.00 | 41 | 1010.7 |
| 20260503221052 | 11 | 154 | 3.2 | 19.3 | 0.00 | 0.00 | 0.00 | 41 | 1010.9 |
| 20260503220550 | 11 | 206 | 6.4 | 19.3 | 0.00 | 0.00 | 0.00 | 40 | 1011.0 |
| 20260503220050 | 11 | 141 | 4.8 | 16.1 | 0.00 | 0.00 | 0.00 | 39 | 1011.0 |
| 20260503215549 | 11 | 134 | 9.7 | 16.1 | 0.00 | 0.00 | 0.00 | 39 | 1011.0 |
| 20260503215050 | 11 | 143 | 1.6 | 16.1 | 0.00 | 0.00 | 0.00 | 40 | 1011.0 |
| 20260503214550 | 11 | 141 | 3.2 | 19.3 | 0.00 | 0.00 | 0.00 | 38 | 1011.0 |
| 20260503214050 | 10 | 145 | 6.4 | 19.3 | 0.00 | 0.00 | 0.00 | 40 | 1011.0 |
| 20260503213550 | 10 | 157 | 4.8 | 22.5 | 0.00 | 0.00 | 0.00 | 39 | 1010.9 |
| 20260503213050 | 10 | 205 | 8.0 | 22.5 | 0.00 | 0.00 | 0.00 | 39 | 1011.0 |
| 20260503212550 | 10 | 137 | 9.7 | 20.9 | 0.00 | 0.00 | 0.00 | 40 | 1010.8 |
| 20260503212050 | 10 | 183 | 8.0 | 16.1 | 0.00 | 0.00 | 0.00 | 41 | 1010.8 |
| 20260503211550 | 10 | 145 | 3.2 | 11.3 | 0.00 | 0.00 | 0.00 | 40 | 1010.7 |
| 20260503211111 | 11 | 146 | 8.0 | 16.1 | 0.00 | 0.00 | 0.00 | 40 | 1010.7 |
| 20260503210611 | 11 | 142 | 4.8 | 17.7 | 0.00 | 0.00 | 0.00 | 39 | 1010.8 |
| 20260503210111 | 11 | 188 | 6.4 | 17.7 | 0.00 | 0.00 | 0.00 | 39 | 1010.7 |
| 20260503205550 | 11 | 117 | 6.4 | 17.7 | 0.00 | 0.00 | 0.00 | 41 | 1010.6 |
| 20260503205111 | 11 | 155 | 4.8 | 16.1 | 0.00 | 0.00 | 0.00 | 41 | 1010.5 |
| 20260503204550 | 11 | 95 | 3.2 | 12.9 | 0.00 | 0.00 | 0.00 | 40 | 1010.6 |
| 20260503204050 | 11 | 195 | 9.7 | 12.9 | 0.00 | 0.00 | 0.00 | 40 | 1010.6 |
| 20260503203550 | 11 | 157 | 4.8 | 16.1 | 0.00 | 0.00 | 0.00 | 39 | 1010.4 |
| 20260503203112 | 11 | 163 | 3.2 | 29.0 | 0.00 | 0.00 | 0.00 | 46 | 1010.4 |
| 20260503202550 | 10 | 210 | 12.9 | 29.0 | 0.00 | 0.00 | 0.00 | 40 | 1010.4 |
| 20260503202050 | 11 | 171 | 3.2 | 19.3 | 0.00 | 0.00 | 0.00 | 40 | 1010.5 |
| 20260503201611 | 10 | 202 | 11.3 | 19.3 | 0.00 | 0.00 | 0.00 | 42 | 1010.5 |
| 20260503201050 | 10 | 146 | 4.8 | 14.5 | 0.00 | 0.00 | 0.00 | 40 | 1010.4 |
| 20260503200550 | 10 | 115 | 4.8 | 14.5 | 0.00 | 0.00 | 0.00 | 42 | 1010.3 |
| 20260503200050 | 10 | 105 | 4.8 | 14.5 | 0.00 | 0.00 | 0.00 | 41 | 1010.3 |
| 20260503195611 | 10 | 114 | 3.2 | 14.5 | 0.00 | 0.00 | 0.00 | 39 | 1010.4 |